Regional Weather Roundup
Issued by NWS Newport/Morehead, NC

Current Version | Previous Version | Graphics & Text | Print | Product List | Glossary Off
Versions: 1 2 3 4 5 6 7 8 9 10 11 12 13 14 15 16 17 18 19 20 21 22 23 24 25 26 27 28 29 30 31 32 33 34 35 36 37 38 39 40 41 42 43 44 45 46 47 48 49 50

000
ASUS42 KMHX 280313
RWRMHX
WEATHER ROUNDUP FOR EASTERN NORTH CAROLINA
NATIONAL WEATHER SERVICE NEWPORT/MOREHEAD CITY NC
1100 PM EDT THU APR 27 2017

NOTE: "FAIR" INDICATES FEW OR NO CLOUDS BELOW 12,000 FEET
WITH NO SIGNIFICANT WEATHER AND/OR OBSTRUCTIONS TO VISIBILITY

NCZ015>017-031-032-045>047-102-103-280400-
NORTH COAST

CITY           SKY/WX    TMP DP  RH WIND       PRES   REMARKS
EDENTON        MOCLDY    73  65  74 SW9       29.95R
ELIZABETH CITY MOCLDY    73  65  75 S14       29.93R
KITTY HAWK     PTCLDY    72  63  74 SW8       29.94S
MANTEO         CLOUDY    71  64  79 SW14      29.96S

$$

NCZ045>047-081-094-103-104-280400-
CENTRAL COAST

CITY           SKY/WX    TMP DP  RH WIND       PRES   REMARKS
FRISCO         CLEAR     73  69  87 SW10      29.98R FOG

$$

NCZ095-097-098-100-101-280400-
SOUTHERN COAST

CITY           SKY/WX    TMP DP  RH WIND       PRES   REMARKS
BEAUFORT       PTCLDY    73  72  96 SW12      29.99R
CEDAR ISLAND   NOT AVBL
JACKSONVILLE   CLOUDY    72  70  93 S8        29.97R
PINEY ISLAND   NOT AVBL
WILMINGTON     CLOUDY    74  71  91 S9        29.98R


$$

NCZ011>013-027>030-043-044-078>080-089-090>093-098-280400-
COASTAL PLAIN

CITY           SKY/WX    TMP DP  RH WIND       PRES   REMARKS
AHOSKIE          N/A     70  64  79 S6        29.93R
CLINTON        CLOUDY    73  69  89 S6        29.95S
ELIZABETHTOWN  CLOUDY    74  70  88 S7        29.95S
GOLDSBORO      MOCLDY    73  70  89 S6        29.94R
GREENVILLE     CLOUDY    73  64  73 SW9       29.97R
HAVELOCK       NOT AVBL
KENANSVILLE    CLOUDY    73  68  83 CALM      29.97R
KINSTON        CLOUDY    74  65  75 S9        29.96R
NEW BERN       CLOUDY    72  67  84 S8        29.98R
RICHLANDS      CLOUDY    72  68  87 S7        29.97R
ROCKY MOUNT    PTCLDY    73  65  75 S8        29.93R
WASHINGTON     CLOUDY    72  64  74 S7        29.96R
WHITEVILLE     CLOUDY    74  71  89 S8        29.95S

$$

AMZ130-135-150-152-154-156-158-170-250-252-270-ANZ085-086-088-633-658-670-280400-
MARINE OBSERVATIONS

STATION/POSITION TIME  TEMP    WIND        PRES    WAVE   SWELL
                       AIR SEA DIR/SP/G            HT/PER HT/PER
                 (UTC) (F)     (DEG/KT/KT) (MB)    (FT/S) (FT/S)
CHESAPEAKE LIGHT NOT AVBL
64 E VA BEACH    0250   61 57  190/ 14/ 14 1014.4    5/ 8   3/ 8
DUCK             0242   73 58  210/ 14/ 19 1013.3
2 E DUCK         0300      61                N/A     3/12   2/12
OREGON INLET     0248          200/ 15/ 18   N/A
13E OREGON INLT  0248      64                N/A     4/ 8   3/ 8
HATTERAS CG      0242   74 72  200/  9/ 13 1015.1
DIAMOND BUOY     0250   77 77  200/ 19/ 23 1015.1    5/ 8   3/ 8
CAPE LOOKOUT     0300   73     210/  9/ 12 1015.4
BEAUFORT LAB     0242   72 68  210/  7/ 10 1014.6
30 SE NEW RVR IN 0208   73     200/ 12/ 16 1015.1
30 SE NEW RVR IN 0243      72                N/A     5/ 6   2/13
27 SE WRIGHTSVLE 0208   74 72  190/ 10/ 12 1014.4
5 SE WRIGHTSVLE  0208   72 71  220/  4/  8 1014.9
225 S CAPE HAT   0250   75 75  160/ 16/ 19 1018.1    4/ 8   2/12
41 SE CHARLESTON 0250   76 74  170/ 12/ 16 1014.3    4/ 9   3/ 9

$$




USA.gov is the U.S. government's official web portal to all federal, state and local government web resources and services.